STARLINK-11523, 62565

Orbit data source: Space-Track

STARLINK-11523, 62565 is a payload satellite owned by SpaceX/Seattle (US) in LEO that was launched on Fri, 10 Jan 2025 UTC via an FALCON 9 launch vehicle from the Air Force Eastern Test Range (AFETR). Payload-class satellites include a variety of spacecraft equipped with specific instruments for various scientific and technological missions. These include communications satellites like Starlink; space stations such as the ISS; scientific satellites like the Hubble; Earth observation satellites from companies like Planet Labs, Umbra, and HawkEye 360; GPS; miniature CubeSats for education and research; and military/defense satellites.

Loading next visibility...
Identifier
62565, 2025-006M
Orbit
LEO
Country
Flag of USUS
Related business
Manufacturer
SpaceX/Seattle
Mission
Operational Commercial Communications
Bus & Motor
STARLINK V2MD, Unknown motor
Mass
960 kg wet, ~910 kg dry
Launch date (UTC)
2025-01-10 (1 year ago)
Launch vehicle
FALCON 9
Launch site
Air Force Eastern Test Range (AFETR)
Object type
Payload
Rocket body
Debris
Shape & HBR
Box + 2 Pan, 18.1 m
Radar Cross Section
36.964 m², Large (>1 m²)

Expand to show TLE details & history
Last TLE update: 12 hours ago

TLE from 12 hours ago
0 STARLINK-11523
1 62565U 25006M   26171.46480998  .00164158  00000-0  12510-2 0  9998
2 62565  42.9989 240.6324 0001453 242.0960 117.9761 15.70967809 82761
Epoch: 2026-06-20T11:09Z
TLE epoch observation values (Epoch: 2026-06-20T11:09:19.582Z)
Latitude
0.00002°
Longitude
164.62178°
Altitude
356.36 km
Speed
7.697 km/s
True Right ascension
16h 02m 31s
True Declination
0° 00' 00"
Sunlit
Object was in full shadow at epoch
Visualization orbit readout
Latitude
Unknown
Longitude
Unknown
Altitude
Unknown
Speed
Unknown
Apparent Right ascension
Unknown
Apparent Declination
Unknown
Sunlit
N/A
Visualization observer readout
Local Sidereal Time
10:19:36
Azimuth
Unknown
Elevation
Unknown
Doppler factor
Unknown
Orbital elements
Apogee altitude
359.09 km
Perigee altitude
357.133 km
Semi-major axis
6,736.249 km
Eccentricity
0.00015
Inclination
42.9989°
RAAN
240.6324°
Arg. of periapsis
242.096°
True anomaly
117.9908°
Mean anomaly
117.9761°
Eccentric anomaly
117.98345°
Mean motion
3.92569 °/min
Orbital period
91.7 mins
BSTAR
0.001251
Loading maneuver chart data...
Computing Atmospheric mass density...
Loading historical data...
Loading historical data...
Loading historical data...
Loading historical data...
Loading historical data...
Loading historical data...
Loading historical data...

Documentation

Showing up to 5 results
|